Regional Weather Roundup
Issued by NWS

Home | Current Version | Previous Version | Graphics & Text | Print | Product List | Glossary On
Versions: 1 2 3 4 5 6 7 8 9 10 11 12 13 14 15 16 17 18 19 20 21 22 23 24 25 26 27 28 29 30 31 32 33 34 35 36 37 38 39 40 41 42 43 44 45 46 47 48 49 50
000
ASUS43 KIND 301059
RWRIN

WEATHER ROUNDUP FOR INDIANA
NATIONAL WEATHER SERVICE INDIANAPOLIS IN
700 AM EDT THU JUL 30 2015

NOTE: "FAIR" INDICATES FEW OR NO CLOUDS BELOW 12,000 FEET WITH NO
SIGNIFICANT WEATHER AND/OR OBSTRUCTIONS TO VISIBILITY.

* - STATION DOES NOT REPORT WEATHER SUCH AS PRECIPITATION OR FOG.

+ - STATION NOT QUALITY CONTROLLED BY THE NATIONAL WEATHER SERVICE.
    USE DATA WITH CAUTION...ESPECIALLY DEWPOINT AND RELATIVE
    HUMIDITY OBSERVATIONS.

INZ001>003-010>013-019-020-301200-
NORTHWEST INDIANA

CITY           SKY/WX    TMP DP  RH WIND       PRES   REMARKS
GARY /AIRPORT/ CLEAR     68  59  73 W8        30.05R
KNOX *+        CLEAR     61  57  88 W7        30.03R
MONTICELLO +   CLEAR     62  61  95 W5        30.05R
RENSSELAER +   CLEAR     63  61  94 W5        30.07R

$$

LMZ046-743>745-301200-
SOUTHERN LAKE MICHIGAN

STATION/POSITION TIME  TEMP    WIND        PRES    WAVE
                       AIR SEA DIR/SP/G            HT
                 (UTC) (F)     (DEG/KT/KT) (MB)    (FT)
BURNS HARBOR     1000   72     270/ 15/ 17 1016.9R
MICHIGAN CITY    1000   72     240/ 15/ 17   N/A
5NW MICH CITY    1000   74 73  290/ 14/ 17   N/A     3

$$

INZ004-005-014>016-021>024-301200-
NORTH CENTRAL INDIANA

CITY           SKY/WX    TMP DP  RH WIND       PRES   REMARKS
ELKHART        CLEAR     61  57  88 CALM      30.02
GOSHEN         CLEAR     61  57  87 SW6       30.02R
SOUTH BEND     CLEAR     62  58  86 SW5       30.03R

$$

INZ006>009-017-018-025>027-301200-
NORTHEAST INDIANA

CITY           SKY/WX    TMP DP  RH WIND       PRES   REMARKS
ANGOLA *+      CLEAR     63  57  82 W3        30.01R
FORT WAYNE     PTCLDY    62  58  86 W8        30.04R

$$

INZ028-029-035-036-043>045-051>053-301200-
WEST CENTRAL INDIANA

CITY           SKY/WX    TMP DP  RH WIND       PRES   REMARKS
CRAWFORDSVL +  CLEAR     58  58 100 W3          N/A
GREENCASTLE +  CLEAR     64  55  72 NW3       30.09R
LAFAYETTE      CLEAR     60  59  96 W3        30.06R
TERRE HAUTE    CLEAR     65  59  81 N3        30.09R

$$

INZ030>032-037>040-046>048-054>057-064-065-301200-
CENTRAL INDIANA

CITY           SKY/WX    TMP DP  RH WIND       PRES   REMARKS
COLUMBUS       PTCLDY    63  59  88 NW3       30.06
GREENWOOD *+   CLEAR     63  57  82 CALM      30.07
INDIANAPOLIS   PTCLDY    65  58  78 NW8       30.06R
-EAGLE CREEK   CLEAR     67  59  75 VRB6      30.06R
KOKOMO *+      CLEAR     63  55  77 W8        30.06R
MT COMFORT *+  CLEAR     66  59  77 NW6       30.07R
SHELBYVILLE    CLEAR     65  60  84 NW5       30.06R

$$

INZ033-034-041-042-049-050-058-059-301200-
EAST CENTRAL INDIANA

CITY           SKY/WX    TMP DP  RH WIND       PRES   REMARKS
MUNCIE         CLEAR     63  59  87 W7        30.06R

$$

INZ060-061-067>069-081>083-085>088-301200-
SOUTHWEST INDIANA

CITY           SKY/WX    TMP DP  RH WIND       PRES   REMARKS
EVANSVILLE     CLEAR     69  60  73 CALM      30.09R
HUNTINGBURG *+ CLEAR     66  61  82 CALM      30.09R

$$

INZ062-063-066-070>080-084-089>092-301200-
SOUTH CENTRAL AND SOUTHEAST INDIANA

CITY           SKY/WX    TMP DP  RH WIND       PRES   REMARKS
BLOOMINGTON    CLEAR     64  60  87 CALM      30.08R
MADISON *+     PTCLDY    64  61  88 CALM      30.08R
SEYMOUR +      CLEAR     66  61  82 NW3       30.06

$$



USA.gov is the U.S. government's official web portal to all federal, state and local government web resources and services.